DLH2EW EDDF-EPWA

Flight info

Callsign DLH2EW
Flight time 1h 25m
Altitude 35000
Route TOBAK2D TOBAK N858 SWALM T201 TAMEB DCT NEVKO DCT POZUM DCT ADVAB DCT OBOKU DCT DOSIX P150 BIMPA
Aircraft A321/M-SDE2E3FGIJ1LORWXYZ/HB1

Departure

Time 2026-04-14 22:15
Airport Frankfurt Main Airport (EDDF)

Arrival

Time 2026-04-14 23:40
Airport Warsaw Chopin Airport (EPWA)
Time Latitude Longitude Altitude Speed Heading
2026-04-14 22:00 50.03877 8.54147 343 ft 0 kts 249°
2026-04-14 22:07 50.03882 8.54168 358 ft 3 kts 249°
2026-04-14 22:07 50.03888 8.54194 352 ft 3 kts 249°
2026-04-14 22:07 50.03894 8.54219 355 ft 3 kts 249°
2026-04-14 22:08 50.03899 8.54237 346 ft 3 kts 227°
2026-04-14 22:08 50.03915 8.54251 357 ft 3 kts 188°
2026-04-14 22:08 50.03934 8.54255 351 ft 3 kts 188°
2026-04-14 22:08 50.03951 8.54253 352 ft 2 kts 140°
2026-04-14 22:09 50.03961 8.54243 350 ft 0 kts 155°
2026-04-14 22:11 50.03949 8.54252 352 ft 3 kts 155°
2026-04-14 22:11 50.03944 8.54255 353 ft 0 kts 156°
2026-04-14 22:11 50.03933 8.54263 357 ft 4 kts 157°
2026-04-14 22:12 50.03862 8.54302 348 ft 17 kts 161°
2026-04-14 22:12 50.03750 8.54364 352 ft 16 kts 160°
2026-04-14 22:12 50.03672 8.54358 353 ft 11 kts 236°
2026-04-14 22:12 50.03605 8.54314 349 ft 12 kts 160°
2026-04-14 22:13 50.03579 8.54328 347 ft 0 kts 161°
2026-04-14 22:13 50.03577 8.54330 351 ft 2 kts 161°
2026-04-14 22:13 50.03556 8.54341 343 ft 5 kts 161°
2026-04-14 22:13 50.03528 8.54356 345 ft 3 kts 161°
2026-04-14 22:14 50.03499 8.54384 347 ft 7 kts 121°
2026-04-14 22:14 50.03509 8.54499 350 ft 19 kts 69°
2026-04-14 22:14 50.03584 8.54815 348 ft 73 kts 70°
2026-04-14 22:14 50.03961 8.56397 361 ft 158 kts 70°
2026-04-14 22:15 50.04386 8.58185 680 ft 181 kts 70°
2026-04-14 22:15 50.04678 8.59426 1241 ft 180 kts 70°
2026-04-14 22:15 50.05093 8.61267 1914 ft 185 kts 71°
2026-04-14 22:15 50.05537 8.63265 2203 ft 206 kts 71°
2026-04-14 22:16 50.06090 8.65447 2450 ft 230 kts 66°
2026-04-14 22:16 50.06805 8.67796 2901 ft 247 kts 64°
2026-04-14 22:16 50.07570 8.70189 3624 ft 253 kts 64°
2026-04-14 22:16 50.08376 8.72688 4414 ft 257 kts 64°
2026-04-14 22:17 50.09170 8.75156 5183 ft 260 kts 64°
2026-04-14 22:17 50.09982 8.77696 5951 ft 264 kts 64°
2026-04-14 22:17 50.10801 8.80272 6722 ft 267 kts 63°
2026-04-14 22:17 50.11630 8.82890 7428 ft 271 kts 63°
2026-04-14 22:18 50.12467 8.85549 8108 ft 277 kts 64°
2026-04-14 22:18 50.13322 8.88273 8767 ft 282 kts 64°
2026-04-14 22:18 50.14193 8.91047 9438 ft 287 kts 64°
2026-04-14 22:18 50.15078 8.93871 10114 ft 292 kts 64°
2026-04-14 22:19 50.15984 8.96764 10529 ft 306 kts 64°
2026-04-14 22:19 50.17984 9.03154 10793 ft 349 kts 64°
2026-04-14 22:19 50.19065 9.06616 11155 ft 359 kts 64°
2026-04-14 22:20 50.20159 9.10142 11739 ft 362 kts 63°
2026-04-14 22:20 50.21257 9.13696 12374 ft 364 kts 63°
2026-04-14 22:20 50.22360 9.17264 13001 ft 366 kts 63°
2026-04-14 22:20 50.23473 9.20856 13659 ft 368 kts 63°
2026-04-14 22:21 50.24592 9.24466 14272 ft 370 kts 63°
2026-04-14 22:21 50.25717 9.28100 14812 ft 372 kts 63°
2026-04-14 22:21 50.26848 9.31756 15328 ft 376 kts 63°
2026-04-14 22:21 50.27987 9.35448 15817 ft 379 kts 63°
2026-04-14 22:22 50.29136 9.39183 16334 ft 383 kts 63°
2026-04-14 22:22 50.30295 9.42952 16842 ft 386 kts 63°
2026-04-14 22:22 50.31462 9.46759 17354 ft 390 kts 63°
2026-04-14 22:22 50.32638 9.50601 17831 ft 393 kts 63°
2026-04-14 22:23 50.33824 9.54476 18315 ft 397 kts 63°
2026-04-14 22:23 50.35016 9.58386 18746 ft 400 kts 63°
2026-04-14 22:23 50.36219 9.62331 19167 ft 402 kts 63°
2026-04-14 22:23 50.37428 9.66292 19604 ft 404 kts 63°
2026-04-14 22:24 50.38643 9.70281 20042 ft 407 kts 63°
2026-04-14 22:24 50.39860 9.74291 20475 ft 409 kts 63°
2026-04-14 22:24 50.41081 9.78328 20895 ft 411 kts 63°
2026-04-14 22:24 50.42308 9.82394 21305 ft 414 kts 63°
2026-04-14 22:25 50.43540 9.86485 21736 ft 416 kts 63°
2026-04-14 22:25 50.44778 9.90602 22155 ft 418 kts 63°
2026-04-14 22:25 50.46024 9.94742 22572 ft 421 kts 63°
2026-04-14 22:25 50.47260 9.98854 22963 ft 423 kts 63°
2026-04-14 22:26 50.48519 10.03047 23357 ft 426 kts 63°
2026-04-14 22:26 50.49783 10.07266 23756 ft 428 kts 63°
2026-04-14 22:26 50.51052 10.11510 24110 ft 430 kts 62°
2026-04-14 22:26 50.52324 10.15769 24452 ft 432 kts 62°
2026-04-14 22:27 50.53601 10.20050 24802 ft 433 kts 62°
2026-04-14 22:27 50.54881 10.24349 25152 ft 435 kts 62°
2026-04-14 22:27 50.56158 10.28657 25503 ft 436 kts 62°
2026-04-14 22:27 50.57439 10.32999 25818 ft 438 kts 63°
2026-04-14 22:28 50.58721 10.37354 26155 ft 440 kts 62°
2026-04-14 22:28 50.60010 10.41726 26496 ft 441 kts 62°
2026-04-14 22:28 50.61303 10.46118 26821 ft 443 kts 62°
2026-04-14 22:28 50.62598 10.50528 27157 ft 444 kts 62°
2026-04-14 22:29 50.63896 10.54950 27483 ft 445 kts 62°
2026-04-14 22:29 50.65198 10.59382 27796 ft 447 kts 62°
2026-04-14 22:29 50.66502 10.63834 28102 ft 448 kts 62°
2026-04-14 22:29 50.67791 10.68243 28383 ft 449 kts 62°
2026-04-14 22:30 50.69097 10.72728 28645 ft 451 kts 62°
2026-04-14 22:30 50.70402 10.77227 28920 ft 452 kts 62°
2026-04-14 22:30 50.71710 10.81743 29177 ft 453 kts 62°
2026-04-14 22:30 50.73022 10.86271 29413 ft 455 kts 62°
2026-04-14 22:31 50.74337 10.90818 29724 ft 455 kts 62°
2026-04-14 22:31 50.75646 10.95350 30057 ft 454 kts 62°
2026-04-14 22:31 50.76954 10.99886 30399 ft 453 kts 62°
2026-04-14 22:31 50.78255 11.04407 30688 ft 452 kts 62°
2026-04-14 22:32 50.79550 11.08926 30957 ft 451 kts 62°
2026-04-14 22:32 50.80842 11.13442 31245 ft 450 kts 62°
2026-04-14 22:32 50.82129 11.17950 31496 ft 450 kts 62°
2026-04-14 22:32 50.83414 11.22457 31752 ft 450 kts 62°
2026-04-14 22:33 50.84696 11.26969 32007 ft 449 kts 62°
2026-04-14 22:33 50.85973 11.31472 32279 ft 449 kts 62°
2026-04-14 22:33 50.87233 11.35987 32552 ft 449 kts 63°
2026-04-14 22:33 50.88477 11.40523 32751 ft 450 kts 63°
2026-04-14 22:34 50.89712 11.45079 32980 ft 450 kts 63°
2026-04-14 22:34 50.90940 11.49642 33229 ft 450 kts 63°
2026-04-14 22:34 50.92164 11.54198 33493 ft 449 kts 63°
2026-04-14 22:34 50.93387 11.58754 33759 ft 448 kts 63°
2026-04-14 22:35 50.94609 11.63297 34027 ft 448 kts 63°
2026-04-14 22:35 50.95833 11.67828 34282 ft 447 kts 63°
2026-04-14 22:35 50.97059 11.72358 34497 ft 447 kts 63°
2026-04-14 22:35 50.98283 11.76890 34696 ft 447 kts 63°
2026-04-14 22:36 50.99504 11.81425 34852 ft 448 kts 63°
2026-04-14 22:36 51.00727 11.85979 35016 ft 449 kts 63°
2026-04-14 22:36 51.01950 11.90544 35198 ft 449 kts 63°
2026-04-14 22:37 51.04370 11.99641 35282 ft 451 kts 64°
2026-04-14 22:37 51.06796 12.08820 35283 ft 450 kts 64°
2026-04-14 22:38 51.09225 12.18003 35273 ft 450 kts 64°
2026-04-14 22:38 51.11650 12.27193 35279 ft 450 kts 64°
2026-04-14 22:39 51.14056 12.36405 35279 ft 451 kts 64°
2026-04-14 22:39 51.16459 12.45633 35299 ft 452 kts 64°
2026-04-14 22:40 51.18869 12.54892 35282 ft 453 kts 64°
2026-04-14 22:40 51.21272 12.64182 35278 ft 454 kts 65°
2026-04-14 22:41 51.23674 12.73495 35278 ft 454 kts 65°
2026-04-14 22:41 51.26074 12.82824 35284 ft 454 kts 65°
2026-04-14 22:42 51.28463 12.92162 35285 ft 454 kts 65°
2026-04-14 22:42 51.30849 13.01518 35297 ft 455 kts 65°
2026-04-14 22:43 51.33231 13.10915 35286 ft 457 kts 65°
2026-04-14 22:43 51.35610 13.20339 35279 ft 458 kts 65°
2026-04-14 22:44 51.37990 13.29796 35284 ft 459 kts 65°
2026-04-14 22:44 51.40366 13.39282 35287 ft 459 kts 65°
2026-04-14 22:45 51.42732 13.48786 35284 ft 459 kts 66°
2026-04-14 22:45 51.45090 13.58297 35289 ft 460 kts 66°
2026-04-14 22:46 51.47453 13.67843 35285 ft 460 kts 66°
2026-04-14 22:46 51.49808 13.77401 35290 ft 461 kts 66°
2026-04-14 22:47 51.52157 13.86985 35284 ft 462 kts 66°
2026-04-14 22:47 51.54504 13.96595 35284 ft 462 kts 66°
2026-04-14 22:48 51.56848 14.06220 35279 ft 463 kts 66°
2026-04-14 22:48 51.59163 14.15802 35280 ft 463 kts 66°
2026-04-14 22:49 51.61484 14.25466 35277 ft 463 kts 67°
2026-04-14 22:49 51.63802 14.35138 35280 ft 463 kts 67°
2026-04-14 22:50 51.66120 14.44821 35282 ft 464 kts 67°
2026-04-14 22:50 51.68430 14.54526 35278 ft 464 kts 67°
2026-04-14 22:51 51.70725 14.64251 35279 ft 464 kts 67°
2026-04-14 22:51 51.72969 14.74027 35280 ft 465 kts 69°
2026-04-14 22:52 51.75051 14.83909 35273 ft 465 kts 69°
2026-04-14 22:52 51.77088 14.93832 35274 ft 466 kts 70°
2026-04-14 22:53 51.79143 15.03743 35278 ft 466 kts 69°
2026-04-14 22:53 51.81225 15.13652 35277 ft 466 kts 69°
2026-04-14 22:54 51.83303 15.23578 35272 ft 466 kts 69°
2026-04-14 22:54 51.85365 15.33534 35270 ft 467 kts 70°
2026-04-14 22:55 51.87408 15.43508 35270 ft 467 kts 70°
2026-04-14 22:55 51.89448 15.53491 35268 ft 467 kts 70°
2026-04-14 22:56 51.91485 15.63487 35267 ft 467 kts 70°
2026-04-14 22:56 51.93508 15.73486 35261 ft 467 kts 70°
2026-04-14 22:57 51.95527 15.83504 35273 ft 468 kts 70°
2026-04-14 22:57 51.97538 15.93524 35263 ft 468 kts 70°
2026-04-14 22:58 51.99543 16.03560 35260 ft 468 kts 70°
2026-04-14 22:58 52.01536 16.13607 35255 ft 468 kts 70°
2026-04-14 22:59 52.03521 16.23667 35252 ft 468 kts 70°
2026-04-14 22:59 52.05502 16.33724 35252 ft 468 kts 70°
2026-04-14 23:00 52.07476 16.43796 35253 ft 468 kts 71°
2026-04-14 23:00 52.09433 16.53879 35254 ft 468 kts 71°
2026-04-14 23:01 52.11382 16.63981 35252 ft 468 kts 71°
2026-04-14 23:01 52.12959 16.72402 35251 ft 469 kts 75°
2026-04-14 23:02 52.14084 16.82865 35250 ft 470 kts 79°
2026-04-14 23:02 52.15133 16.93358 35239 ft 470 kts 79°
2026-04-14 23:03 52.16179 17.03857 35238 ft 470 kts 80°
2026-04-14 23:03 52.17217 17.14361 35237 ft 470 kts 80°
2026-04-14 23:04 52.18233 17.24874 35229 ft 470 kts 80°
2026-04-14 23:04 52.19236 17.35385 35231 ft 469 kts 80°
2026-04-14 23:05 52.20219 17.45831 35226 ft 469 kts 80°
2026-04-14 23:05 52.21210 17.56347 35225 ft 469 kts 80°
2026-04-14 23:06 52.22196 17.66872 35223 ft 470 kts 81°
2026-04-14 23:06 52.23176 17.77402 35223 ft 470 kts 81°
2026-04-14 23:07 52.24139 17.87941 35226 ft 470 kts 81°
2026-04-14 23:07 52.25088 17.98496 35227 ft 470 kts 81°
2026-04-14 23:08 52.26006 18.09060 35221 ft 470 kts 82°
2026-04-14 23:08 52.26861 18.19644 35219 ft 471 kts 82°
2026-04-14 23:09 52.27711 18.30253 35220 ft 471 kts 82°
2026-04-14 23:09 52.28565 18.40877 35110 ft 472 kts 82°
2026-04-14 23:09 52.28988 18.46180 34549 ft 470 kts 82°
2026-04-14 23:10 52.29409 18.51469 33874 ft 469 kts 82°
2026-04-14 23:10 52.29828 18.56757 33086 ft 470 kts 82°
2026-04-14 23:10 52.30247 18.62057 32246 ft 472 kts 83°
2026-04-14 23:10 52.30664 18.67395 31345 ft 475 kts 83°
2026-04-14 23:11 52.31076 18.72776 30437 ft 479 kts 83°
2026-04-14 23:11 52.31488 18.78190 29413 ft 482 kts 83°
2026-04-14 23:11 52.31901 18.83629 28574 ft 480 kts 83°
2026-04-14 23:11 52.32308 18.89019 27919 ft 475 kts 83°
2026-04-14 23:12 52.32709 18.94353 27284 ft 470 kts 83°
2026-04-14 23:12 52.33105 18.99627 26649 ft 465 kts 83°
2026-04-14 23:12 52.33495 19.04847 26024 ft 460 kts 83°
2026-04-14 23:12 52.33880 19.10017 25409 ft 456 kts 83°
2026-04-14 23:13 52.34258 19.15131 24800 ft 451 kts 83°
2026-04-14 23:13 52.34628 19.20198 24201 ft 447 kts 83°
2026-04-14 23:13 52.34979 19.25231 23539 ft 443 kts 84°
2026-04-14 23:13 52.35267 19.30216 22845 ft 439 kts 85°
2026-04-14 23:14 52.35510 19.35164 22183 ft 434 kts 86°
2026-04-14 23:14 52.35727 19.40064 21540 ft 429 kts 86°
2026-04-14 23:14 52.35934 19.44909 20911 ft 425 kts 86°
2026-04-14 23:14 52.36143 19.49707 20298 ft 421 kts 86°
2026-04-14 23:15 52.36359 19.54454 19706 ft 417 kts 86°
2026-04-14 23:15 52.36579 19.59162 19139 ft 413 kts 86°
2026-04-14 23:15 52.36802 19.63824 18554 ft 409 kts 86°
2026-04-14 23:15 52.37020 19.68447 17922 ft 406 kts 86°
2026-04-14 23:16 52.37234 19.72961 17755 ft 389 kts 86°
2026-04-14 23:16 52.37588 19.77267 17441 ft 378 kts 77°
2026-04-14 23:16 52.38392 19.81338 16953 ft 373 kts 68°
2026-04-14 23:16 52.39367 19.85252 16408 ft 370 kts 68°
2026-04-14 23:17 52.40327 19.89143 15882 ft 367 kts 68°
2026-04-14 23:17 52.41273 19.93006 15355 ft 364 kts 68°
2026-04-14 23:17 52.42208 19.96842 14853 ft 361 kts 68°
2026-04-14 23:18 52.44034 20.04371 13838 ft 355 kts 68°
2026-04-14 23:18 52.44945 20.08115 13292 ft 352 kts 68°
2026-04-14 23:18 52.45848 20.11823 12774 ft 349 kts 68°
2026-04-14 23:18 52.46743 20.15497 12252 ft 345 kts 68°
2026-04-14 23:19 52.47625 20.19136 11749 ft 342 kts 68°
2026-04-14 23:19 52.48493 20.22745 11290 ft 337 kts 68°
2026-04-14 23:19 52.49332 20.26247 11148 ft 322 kts 68°
2026-04-14 23:19 52.50135 20.29599 11026 ft 310 kts 68°
2026-04-14 23:20 52.50759 20.32940 10717 ft 304 kts 80°
2026-04-14 23:20 52.50905 20.36380 10352 ft 301 kts 94°
2026-04-14 23:20 52.50601 20.39758 9959 ft 299 kts 102°
2026-04-14 23:20 52.50132 20.43066 9546 ft 296 kts 112°
2026-04-14 23:21 52.49110 20.45928 9161 ft 289 kts 134°
2026-04-14 23:21 52.47551 20.47922 8770 ft 282 kts 156°
2026-04-14 23:21 52.45704 20.48877 8366 ft 277 kts 171°
2026-04-14 23:21 52.43818 20.49508 7963 ft 276 kts 170°
2026-04-14 23:22 52.41936 20.50132 7569 ft 275 kts 170°
2026-04-14 23:22 52.40065 20.50752 7201 ft 273 kts 170°
2026-04-14 23:22 52.38207 20.51369 6836 ft 272 kts 170°
2026-04-14 23:22 52.36359 20.51982 6464 ft 270 kts 170°
2026-04-14 23:23 52.34528 20.52593 6077 ft 268 kts 170°
2026-04-14 23:23 52.32706 20.53199 5700 ft 266 kts 170°
2026-04-14 23:23 52.30899 20.53804 5330 ft 264 kts 168°
2026-04-14 23:23 52.29205 20.54926 4963 ft 264 kts 149°
2026-04-14 23:24 52.27837 20.56899 4667 ft 261 kts 129°
2026-04-14 23:24 52.26944 20.59409 4534 ft 252 kts 116°
2026-04-14 23:24 52.26247 20.61944 4396 ft 236 kts 116°
2026-04-14 23:24 52.25602 20.64294 4305 ft 216 kts 116°
2026-04-14 23:25 52.25013 20.66423 4131 ft 197 kts 117°
2026-04-14 23:25 52.24471 20.68382 3890 ft 183 kts 117°
2026-04-14 23:25 52.23962 20.70217 3640 ft 172 kts 117°
2026-04-14 23:25 52.23480 20.71953 3425 ft 163 kts 117°
2026-04-14 23:26 52.23027 20.73587 3201 ft 153 kts 118°
2026-04-14 23:26 52.22594 20.75143 2989 ft 148 kts 118°
2026-04-14 23:26 52.22172 20.76661 2800 ft 146 kts 118°
2026-04-14 23:26 52.21753 20.78166 2601 ft 145 kts 118°
2026-04-14 23:27 52.21343 20.79640 2405 ft 145 kts 118°
2026-04-14 23:27 52.20928 20.81130 2205 ft 144 kts 118°
2026-04-14 23:27 52.20515 20.82613 2014 ft 144 kts 118°
2026-04-14 23:27 52.20102 20.84095 1812 ft 143 kts 118°
2026-04-14 23:28 52.19690 20.85572 1617 ft 143 kts 117°
2026-04-14 23:28 52.19279 20.87044 1424 ft 143 kts 117°
2026-04-14 23:28 52.18868 20.88513 1225 ft 142 kts 117°
2026-04-14 23:28 52.18459 20.89977 1033 ft 142 kts 115°
2026-04-14 23:29 52.18050 20.91431 845 ft 141 kts 115°
2026-04-14 23:29 52.17649 20.92883 637 ft 140 kts 114°
2026-04-14 23:29 52.17253 20.94328 432 ft 140 kts 114°
2026-04-14 23:29 52.16857 20.95726 370 ft 124 kts 115°
2026-04-14 23:30 52.16471 20.97110 781 ft 145 kts 114°
2026-04-14 23:30 52.16033 20.98726 1440 ft 163 kts 115°
2026-04-14 23:30 52.15562 21.00468 1893 ft 177 kts 115°
2026-04-14 23:30 52.15387 21.02573 2192 ft 204 kts 81°
2026-04-14 23:31 52.16087 21.04713 2494 ft 228 kts 45°
2026-04-14 23:31 52.17497 21.05957 2926 ft 238 kts 12°
2026-04-14 23:31 52.19112 21.05875 3002 ft 232 kts 339°
2026-04-14 23:31 52.20436 21.04468 3006 ft 228 kts 312°
2026-04-14 23:32 52.21498 21.02556 3011 ft 228 kts 308°
2026-04-14 23:32 52.22515 21.00581 3006 ft 227 kts 307°
2026-04-14 23:32 52.23525 20.98596 3004 ft 227 kts 307°
2026-04-14 23:32 52.24533 20.96610 3004 ft 227 kts 307°
2026-04-14 23:33 52.25539 20.94624 3001 ft 227 kts 307°
2026-04-14 23:33 52.26547 20.92634 3005 ft 227 kts 307°
2026-04-14 23:33 52.27554 20.90645 3008 ft 227 kts 307°
2026-04-14 23:33 52.28559 20.88656 3003 ft 227 kts 307°
2026-04-14 23:34 52.29565 20.86666 3019 ft 227 kts 307°
2026-04-14 23:34 52.30540 20.84643 3010 ft 226 kts 298°
2026-04-14 23:34 52.31201 20.82337 3009 ft 224 kts 289°
2026-04-14 23:34 52.31742 20.79949 3012 ft 224 kts 287°
2026-04-14 23:35 52.32203 20.77529 3014 ft 222 kts 274°
2026-04-14 23:35 52.31964 20.75111 3005 ft 216 kts 239°
2026-04-14 23:35 52.30953 20.73355 3014 ft 215 kts 212°
2026-04-14 23:35 52.29661 20.72120 3014 ft 215 kts 208°
2026-04-14 23:36 52.28285 20.71189 3007 ft 215 kts 187°
2026-04-14 23:36 52.26826 20.71550 3015 ft 217 kts 155°
2026-04-14 23:36 52.25516 20.72803 3012 ft 219 kts 148°
2026-04-14 23:36 52.24254 20.74194 2957 ft 218 kts 147°
2026-04-14 23:37 52.23009 20.75597 2621 ft 217 kts 146°
2026-04-14 23:37 52.22001 20.77343 2507 ft 208 kts 121°
2026-04-14 23:37 52.21411 20.79404 2397 ft 195 kts 117°
2026-04-14 23:37 52.20868 20.81354 2184 ft 183 kts 117°
2026-04-14 23:38 52.20363 20.83164 1932 ft 166 kts 117°
2026-04-14 23:38 52.19911 20.84787 1714 ft 151 kts 117°
2026-04-14 23:38 52.19486 20.86306 1513 ft 145 kts 117°
2026-04-14 23:38 52.19072 20.87787 1319 ft 143 kts 117°
2026-04-14 23:39 52.18663 20.89249 1119 ft 141 kts 116°
2026-04-14 23:39 52.18258 20.90696 940 ft 139 kts 115°
2026-04-14 23:39 52.17859 20.92125 752 ft 138 kts 114°
2026-04-14 23:39 52.17473 20.93525 565 ft 136 kts 114°
2026-04-14 23:40 52.17073 20.94947 360 ft 136 kts 114°
2026-04-14 23:40 52.16722 20.96193 347 ft 104 kts 114°
2026-04-14 23:40 52.16532 20.96878 337 ft 41 kts 112°
2026-04-14 23:40 52.16513 20.97239 336 ft 29 kts 85°
2026-04-14 23:41 52.16581 20.97332 336 ft 14 kts 330°
2026-04-14 23:41 52.16625 20.97193 337 ft 15 kts 292°
2026-04-14 23:41 52.16673 20.97038 338 ft 16 kts 309°
2026-04-14 23:41 52.16775 20.96935 336 ft 19 kts 330°
2026-04-14 23:42 52.16893 20.96833 337 ft 18 kts 332°
2026-04-14 23:42 52.17004 20.96734 338 ft 19 kts 331°
2026-04-14 23:42 52.17124 20.96694 334 ft 18 kts 37°
2026-04-14 23:42 52.17178 20.96858 337 ft 16 kts 64°
2026-04-14 23:43 52.17209 20.96953 334 ft 0 kts 61°
2026-04-14 23:43 52.17211 20.96959 335 ft 0 kts 60°